Hourly Data Report for April 14, 2012

All times are specified in Local Standard Time (LST). Add 1 hour to adjust for Daylight Saving Time where and when it is observed.

Metadata including Station Name, Province, Latitude, Longitude, Elevation, Climate ID, WMO ID, TC ID
CHURCHILL A
MANITOBA
Latitude: 58°44'21.000" N Longitude: 94°03'59.000" W Elevation: 29.30 m
Climate ID: 5060605 WMO ID: 71618 TC ID: YYQ
Hourly Data Report for April 14, 2012
Temp Definition
°C

Dew Point Temp Definition
°C

Rel Hum Definition
%

Wind Dir Definition
10's deg
Wind Spd Definition
km/h

Visibility Definition
km

Stn Press Definition
kPa

Hmdx Definition

Wind Chill Definition

Weather Definition

TIME
00:00 Legend Double Dagger -12.6 -14.3 87 1 18 10.0 101.74 -21 Cloudy
01:00 Legend Double Dagger -12.5 -14.1 88 2 20 10.0 101.67 -21 LegendNANA
02:00 Legend Double Dagger -13.0 -14.9 86 1 20 10.0 101.67 -22 Snow
03:00 Legend Double Dagger -13.2 -14.9 87 1 18 10.0 101.65 -21 Snow
04:00 Legend Double Dagger -13.5 -15.2 87 0 19 10.0 101.63 -22 Snow
05:00 Legend Double Dagger -13.7 -15.6 86 1 22 10.0 101.59 -23 Snow
06:00 Legend Double Dagger -14.3 -16.2 86 2 24 10.0 101.52 -24 Snow
07:00 Legend Double Dagger -14.5 -16.4 86 2 21 10.0 101.56 -24 LegendNANA
08:00 Legend Double Dagger -14.6 -16.6 85 2 22 10.0 101.55 -24 LegendNANA
09:00 Legend Double Dagger -14.5 -16.8 83 2 21 10.0 101.53 -24 Cloudy
10:00 Legend Double Dagger -14.9 -16.9 85 2 25 3.2 101.50 -25 Snow,Blowing Snow
11:00 Legend Double Dagger -14.8 -16.9 84 2 26 3.2 101.47 -25 Snow,Blowing Snow
12:00 Legend Double Dagger -14.3 -16.6 83 1 27 3.2 101.46 -25 Snow,Blowing Snow
13:00 Legend Double Dagger -14.7 -17.6 79 36 29 4.8 101.49 -25 Snow,Blowing Snow
14:00 Legend Double Dagger -15.0 -17.1 84 36 35 3.2 101.48 -27 Snow,Blowing Snow
15:00 Legend Double Dagger -15.2 -17.6 82 36 33 4.8 101.49 -27 Snow,Blowing Snow
16:00 Legend Double Dagger -15.5 -18.4 79 36 35 6.4 101.56 -27 Snow,Blowing Snow
17:00 Legend Double Dagger -15.8 -18.5 80 35 33 8.1 101.61 -28 Snow,Blowing Snow
18:00 Legend Double Dagger -15.8 -18.1 83 35 36 10.0 101.63 -28 Snow,Blowing Snow
19:00 Legend Double Dagger -16.5 -18.6 84 0 37 10.0 101.68 -29 Snow,Blowing Snow
20:00 Legend Double Dagger -17.4 -19.6 83 34 36 6.4 101.70 -30 Snow,Blowing Snow
21:00 Legend Double Dagger -18.3 -20.8 81 35 36 9.7 101.72 -31 Snow,Blowing Snow
22:00 Legend Double Dagger -19.4 -21.5 84 34 33 10.0 101.77 -32 Snow,Blowing Snow
23:00 Legend Double Dagger -20.3 -22.2 85 34 32 10.0 101.82 -33 Blowing Snow

Notes on Data Quality.

Legend
  • E = Estimated
  • M = Missing
  • NA = Not Available
  • ‡ = Partner data that is not subject to review by the National Climate Archives